DW9125 Weather Reports


time (UTC)temp
C
wind
direction
speed
KPH
gust
KPH
rain 1hr
cm
rain 24hr
cm
rain mn
cm
humidity
%
barometer
mb
20260506231554 7 360 0.0 0.0 0.00 0.00 0.00 89 1007.2
20260506224554 7 360 0.0 0.0 0.00 0.00 0.00 89 1007.3
20260506223053 7 360 0.0 0.0 0.00 0.00 0.00 90 1007.3
20260506221601 7 360 0.0 0.0 0.00 0.00 0.00 90 1007.3
20260506220052 7 360 0.0 0.0 0.00 0.00 0.00 91 1007.2
20260506214553 7 360 0.0 0.0 0.00 0.00 0.00 92 1007.3
20260506213056 7 360 0.0 0.0 0.00 0.00 0.00 92 1007.2
20260506211554 7 360 0.0 0.0 0.00 0.00 0.00 93 1007.1
20260506210050 7 360 0.0 0.0 0.00 0.00 0.00 92 1007.3
20260506204550 7 360 0.0 0.0 0.00 0.00 0.00 92 1007.3
20260506203049 7 360 0.0 0.0 0.00 0.00 0.00 92 1007.3
20260506201550 7 360 0.0 0.0 0.00 0.00 0.00 92 1007.3
20260506200048 7 360 0.0 0.0 0.00 0.00 0.00 92 1007.3
20260506194548 7 360 0.0 0.0 0.00 0.00 0.00 92 1007.2
20260506193052 7 360 0.0 0.0 0.00 0.00 0.00 93 1007.3
20260506191546 7 360 0.0 0.0 0.00 0.00 0.00 93 1007.2
20260506190046 7 360 0.0 0.0 0.00 0.00 0.00 93 1007.3
20260506184544 7 360 0.0 0.0 0.00 0.00 0.00 93 1007.4
20260506183043 7 360 0.0 0.0 0.00 0.00 0.00 94 1007.5
20260506181556 7 360 0.0 0.0 0.00 0.00 0.00 94 1007.7
20260506180041 6 360 0.0 0.0 0.00 0.00 0.00 94 1007.9
20260506174540 6 360 0.0 0.0 0.00 0.00 0.00 93 1008.0
20260506173104 6 360 0.0 0.0 0.00 0.00 0.00 94 1008.1
20260506171543 6 360 0.0 0.0 0.00 0.00 0.00 94 1008.3
20260506170051 6 360 0.0 0.0 0.00 0.00 0.00 94 1008.1
20260506164539 6 360 0.0 0.0 0.00 0.00 0.00 93 1008.5
20260506163048 6 360 0.0 0.0 0.00 0.00 0.00 94 1008.4
20260506161535 6 360 0.0 0.0 0.00 0.00 0.00 94 1008.5
20260506160039 6 360 0.0 0.0 0.00 0.00 0.00 93 1008.7
20260506154538 6 360 0.0 0.0 0.00 0.00 0.00 94 1008.8
20260506153033 6 360 0.0 0.0 0.00 0.00 0.00 94 1009.1
20260506151533 6 360 0.0 0.0 0.00 0.00 0.00 93 1009.0
20260506150033 6 360 0.0 0.0 0.00 0.00 0.00 93 1008.9
20260506144539 6 360 0.0 0.0 0.00 0.00 0.00 93 1008.8
20260506143031 6 360 0.0 0.0 0.00 0.00 0.00 93 1009.0
20260506141530 6 360 0.0 0.0 0.00 0.00 0.00 93 1008.9
20260506140033 6 360 0.0 0.0 0.00 0.00 0.00 93 1009.1
20260506134527 6 360 0.0 0.0 0.00 0.00 0.00 93 1009.0
20260506133030 6 360 0.0 0.0 0.00 0.00 0.00 93 1008.7
20260506131525 6 360 0.0 0.0 0.00 0.00 0.00 93 1008.9
20260506130025 6 360 0.0 0.0 0.00 0.00 0.00 92 1008.9
20260506124524 6 360 0.0 0.0 0.00 0.00 0.00 92 1009.0
20260506123023 6 360 0.0 0.0 0.00 0.00 0.00 92 1009.2
20260506121521 6 360 0.0 0.0 0.00 0.00 0.00 92 1009.2
20260506120020 6 360 0.0 1.6 0.00 0.00 0.00 91 1009.9
20260506114516 6 360 0.0 1.6 0.00 0.00 0.00 91 1009.3
20260506113014 7 360 0.0 1.6 0.00 0.00 0.00 91 1009.1
20260506111512 7 360 0.0 0.0 0.00 0.00 0.00 92 1009.2
20260506110012 7 360 0.0 0.0 0.00 0.00 0.00 91 1009.1
20260506104525 7 360 0.0 0.0 0.00 0.00 0.00 91 1008.9
20260506103008 7 360 0.0 0.0 0.00 0.00 0.00 91 1008.2
20260506101508 7 360 0.0 0.0 0.00 0.00 0.00 92 1008.4
20260506100006 7 360 0.0 0.0 0.00 0.00 0.00 92 1008.8
20260506094506 7 360 0.0 0.0 0.00 0.00 0.00 92 1008.7
20260506093004 7 360 0.0 0.0 0.00 0.00 0.00 92 1008.7
20260506091504 7 360 0.0 0.0 0.00 0.00 0.00 92 1008.6
20260506090002 7 360 0.0 0.0 0.00 0.00 0.00 93 1008.7
20260506084501 7 360 0.0 0.0 0.00 0.00 0.00 92 1008.8
20260506083101 7 360 0.0 0.0 0.00 0.00 0.00 93 1008.7
20260506083001 7 360 0.0 0.0 0.00 0.00 0.00 93 1008.8
20260506081602 7 360 0.0 0.0 0.00 0.00 0.00 93 1008.9
20260506080111 7 360 0.0 0.0 0.00 0.00 0.00 93 1008.4
20260506073054 8 360 0.0 0.0 0.00 0.00 0.00 93 1008.6
20260506071608 8 360 0.0 0.0 0.00 0.00 0.00 93 1008.8
20260506061548 8 360 0.0 0.0 0.00 0.00 0.00 92 1008.2
20260506044541 8 360 0.0 0.0 0.00 0.00 0.00 90 1008.4
20260506043048 9 360 0.0 1.6 0.00 0.00 0.00 88 1008.0
20260506041538 9 360 0.0 1.6 0.00 0.00 0.00 86 1008.1
20260506040044 10 360 0.0 1.6 0.00 0.00 0.00 83 1007.7
20260506034528 11 360 0.0 1.6 0.00 0.00 0.00 80 1007.1
20260506033027 12 360 0.0 1.6 0.00 0.00 0.00 76 1007.1
20260506031524 12 360 0.0 1.6 0.00 0.00 0.00 77 1006.9
20260506030023 12 360 0.0 1.6 0.00 0.00 0.00 77 1007.0
20260506024530 13 360 0.0 1.6 0.00 0.00 0.00 75 1006.8
20260506023019 13 360 0.0 1.6 0.00 0.00 0.00 73 1006.3
20260506021538 15 360 0.0 1.6 0.00 0.00 0.00 67 1006.3
20260506020017 15 360 0.0 1.6 0.00 0.00 0.00 63 1006.1
20260506014522 16 360 0.0 3.2 0.00 0.00 0.00 60 1005.9
20260506013012 16 360 0.0 1.6 0.00 0.00 0.00 59 1005.5
20260506011520 16 360 0.0 1.6 0.00 0.00 0.00 58 1005.1
20260506010012 16 360 0.0 1.6 0.00 0.00 0.00 59 1004.7
20260506004505 17 360 0.0 1.6 0.00 0.00 0.00 61 1004.3
20260506003003 17 360 0.0 1.6 0.00 0.00 0.00 69 1004.2
20260506001625 17 360 0.0 1.6 0.00 0.00 0.00 71 1003.8
20260506000110 17 360 0.0 1.6 0.00 0.00 0.00 73 1003.4
20260505234612 17 360 0.0 1.6 0.00 0.00 0.00 73 1003.2
20260505233054 17 360 0.0 1.6 0.00 0.00 0.00 74 1002.6